This demonstration page uses our WeatherBlox Daily Observations layout. Learn more.

Left ArrowRight Arrow

30.21309, -93.2044

Hourly Observations for March 3, 2015

Temp ( °F °C ) Dew Point ( °F °C ) Humidity (%) Winds ( mph kmh ) Pressure ( in mb ) Visibility ( mi km ) Precip ( " mm )
12:15 am 00:15 Cloudy with Mist and Fog 52 11.3 52 11.3 100 100 ENE 5 7 30.18 1022 1 1 0.00 0.00
12:35 am 00:35 Cloudy with Fog 52 11.2 52 11.2 100 100 NE 5 7 30.18 1022 1 1 0.00 0.00
12:55 am 00:55 Cloudy with Fog 52 11.2 52 11.2 100 100 NE 5 7 30.15 1021 1 1 0.00 0.00
1:15 am 01:15 Cloudy with Mist and Fog 52 11.1 52 11.1 100 100 NE 6 9 30.15 1021 1 1 0.00 0.00
1:35 am 01:35 Cloudy with Mist and Fog 52 11.2 52 11.2 100 100 ENE 3 6 30.15 1021 1 1 0.00 0.00
1:55 am 01:55 Cloudy with Mist and Fog 52 11.1 52 11.1 100 100 ENE 5 7 30.15 1021 1 2 0.00 0.00
2:15 am 02:15 Cloudy with Mist and Fog 52 11.1 52 11.1 100 100 ENE 3 6 30.12 1020 1 2 0.00 0.00
2:35 am 02:35 Cloudy with Mist and Fog 52 11.1 52 11.1 100 100 E 3 6 30.12 1020 1 1 0.00 0.00
2:55 am 02:55 Cloudy with Mist and Fog 52 11.1 52 11.1 100 100 E 3 6 30.12 1020 1 2 0.00 0.00
3:15 am 03:15 Cloudy with Mist and Fog 52 11 52 11 100 100 Calm 30.12 1020 2 2 0.00 0.00
6:00 am 06:00 Cloudy with Fog 54 12 54 12 100 100 E 3 6 30.09 1019 1 1 0.00 0.00
6:50 am 06:50 Mostly Cloudy with Fog 54 12 54 12 100 100 E 3 6 30.09 1019 0 0 0.00 0.00
7:50 am 07:50 Mostly Cloudy with Fog 54 12 54 12 100 100 E 3 6 30.09 1019 0 0 0.00 0.00
8:50 am 08:50 Mostly Cloudy with Fog 57 14 57 14 100 100 E 3 6 30.09 1019 1 1 0.00 0.00
9:50 am 09:50 Cloudy with Mist and Fog 61 16 61 16 100 100 SE 5 7 30.09 1019 2 3 0.00 0.00
10:50 am 10:50 Cloudy with Mist and Fog 64 18 61 16 88 88 SE 5 7 30.09 1019 6 10 0.00 0.00
1:50 pm 13:50 Cloudy 75 24 66 19 74 74 S 12 19 30.00 1016 10 16 0.00 0.00
8:15 pm 20:15 Cloudy 68 20.2 67 19.7 97 97 S 8 13 29.94 1014 7 11 0.00 0.00
8:35 pm 20:35 Cloudy 69 20.4 68 19.9 97 97 S 7 11 29.97 1015 7 11 0.00 0.00
8:55 pm 20:55 Cloudy 69 20.4 68 19.9 97 97 S 8 13 29.97 1015 7 11 0.00 0.00
9:15 pm 21:15 Cloudy 69 20.3 67 19.7 96 96 S 7 11 29.97 1015 7 11 0.00 0.00
9:35 pm 21:35 Cloudy 68 20.2 67 19.7 97 97 S 7 11 29.97 1015 7 11 0.00 0.00
9:50 pm 21:50 Cloudy 68 20 66 19 94 94 S 7 11 29.97 1015 7 11 0.00 0.00
9:55 pm 21:55 Cloudy 68 20.1 67 19.5 96 96 S 8 13 29.97 1015 7 11 0.00 0.00
10:15 pm 22:15 Cloudy 68 20.2 67 19.7 97 97 S 8 13 29.97 1015 7 11 0.00 0.00
10:35 pm 22:35 Cloudy with Mist and Fog 68 20.2 68 19.9 98 98 S 9 15 29.97 1015 3 5 0.00 0.00
10:55 pm 22:55 Cloudy with Mist and Fog 68 20 68 19.9 99 99 S 6 9 29.97 1015 3 5 0.00 0.00
11:15 pm 23:15 Cloudy with Mist and Fog 68 20 68 19.8 99 99 S 8 13 29.97 1015 5 8 0.00 0.00
11:35 pm 23:35 Cloudy with Mist and Fog 68 20 67 19.7 98 98 S 9 15 29.94 1014 5 8 0.00 0.00
11:55 pm 23:55 Cloudy with Mist and Fog 68 19.9 67 19.7 99 99 S 9 15 29.94 1014 5 8 0.00 0.00

Powered by AerisWeather